Showing default

COSMOS 2579, 61730

Orbit data source: Space-Track

COSMOS 2579, 61730 is a payload satellite owned by VVKO VKS (CIS) in SSO that was launched on Thu, 31 Oct 2024 UTC via a SOYUZ-2-1A launch vehicle from the Plesetsk Missile And Space Complex (PKMTR). Payload-class satellites include a variety of spacecraft equipped with specific instruments for various scientific and technological missions. These include communications satellites like Starlink; space stations such as the ISS; scientific satellites like the Hubble; Earth observation satellites from companies like Planet Labs, Umbra, and HawkEye 360; GPS; miniature CubeSats for education and research; and military/defense satellites.

Loading next visibility...
Identifier
61730, 2024-197A
Orbit
SSO
Country
Flag of CISCIS
Related business
Manufacturer
Arsenal
Mission
Operational Defense Imaging
Bus & Motor
BARS, AOCS
Mass
3,700 kg wet, ~3,500 kg dry
Launch date (UTC)
2024-10-31 (1 year ago)
Launch vehicle
SOYUZ-2-1A
Launch site
Plesetsk Missile And Space Complex (PKMTR)
Object type
Payload
Rocket body
Debris
Shape & HBR
Cyl + 2 Pan, 5.0 m
Radar Cross Section
20.881 m², Large (>1 m²)

Expand to show TLE details & history
Last TLE update: 3 hours ago

TLE from 3 hours ago
0 COSMOS 2579
1 61730U 24197A   26037.54378376  .00008303  00000-0  32503-3 0  9991
2 61730  97.5574 320.3481 0004874  62.4738 297.6995 15.26064507 70561
Epoch: 2026-02-06T13:03Z
TLE epoch observation values (Epoch: 2026-02-06T13:03:02.916Z)
Latitude
-0.00003°
Longitude
-12.09419°
Altitude
489.13 km
Speed
7.621 km/s
True Right ascension
21h 21m 23s
True Declination
0° 00' 00"
Sunlit
Object was in daylight at epoch
Visualization orbit readout
Latitude
Unknown
Longitude
Unknown
Altitude
Unknown
Speed
Unknown
Apparent Right ascension
Unknown
Apparent Declination
Unknown
Sunlit
N/A
Visualization observer readout
Local Sidereal Time
18:32:30
Azimuth
Unknown
Elevation
Unknown
Doppler factor
Unknown
Orbital elements
Apogee altitude
487.9 km
Perigee altitude
481.21 km
Semi-major axis
6,862.692 km
Eccentricity
0.00049
Inclination
97.5574°
RAAN
320.3481°
Arg. of periapsis
62.4738°
True anomaly
297.65003°
Mean anomaly
297.6995°
Eccentric anomaly
297.67477°
Mean motion
3.8177 °/min
Orbital period
94.3 mins
BSTAR
0.00032503
Loading maneuver chart data...
Computing Atmospheric mass density...
Loading historical data...
Loading historical data...
Loading historical data...
Loading historical data...
Loading historical data...
Loading historical data...
Loading historical data...
Other satellites on launch #197 in the year 2024 (2024-10-31 UTC)

Documentation

Showing up to 5 results
|